Rochester/St. Mary\'s Hospita, MN

4:51 PM CDT on June 18, 2018 (GMT -0500)
Rochester/St. Mary\'s Hospita

Weather History for K9MN - October, 2017

Change the Weather History Date:

Sunday, October 8, 2017

  Actual Average (KRST) Record (KRST)
Temperature  
Mean Temperature 63 °F -  
Max Temperature 77 °F 60 °F 88 °F (1916)
Min Temperature 49 °F 39 °F 21 °F (1976)
Degree Days  
Heating Degree Days 2    
Growing Degree Days 13 (Base 50)    
Moisture  
Dew Point 49 °F    
Average Humidity 66    
Maximum Humidity 98    
Minimum Humidity 34    
Precipitation  
Precipitation 0.00 in - - ()
Sea Level Pressure  
Sea Level Pressure 29.67 in    
Wind  
Wind Speed 8 mph (SSW)    
Max Wind Speed 20 mph    
Max Gust Speed 33 mph    
Visibility 10 miles    
Events      
Averages and records for this station are not official NWS values.
T = Trace of Precipitation, MM = Missing Value Source: NWS Daily Summary

Daily Weather History Graph

Daily Weather History Graph

Search for Another Location

Airport or City:

Astronomy

Oct. 08, 2017 Rise Set
Actual Time 7:16 AM CDT 6:37 PM CDT
Civil Twilight 6:47 AM CDT 7:06 PM CDT
Nautical Twilight 6:13 AM CDT 7:39 PM CDT
Astronomical Twilight 5:40 AM CDT 8:13 PM CDT
Moon 8:54 PM CDT (10/8) 10:23 AM CDT (10/8)
Length of Visible Light 12h 19m
Length of Day
11h 21m
Waning Gibbous, 89% of the Moon is Illuminated
Oct 8
Waning Gibbous
Oct 12
Last Quarter
Oct 19
New
Oct 27
First Quarter
Nov 4
Full

Hourly Weather History & Observations

Time (CDT) Temp. Dew Point Humidity Pressure Visibility Wind Dir Wind Speed Gust Speed Precip Events Conditions
12:12 AM 56.8 °F 50.4 °F 79% 29.60 in 10.0 mi WSW 6.9 mph - N/A   Clear
12:31 AM 56.7 °F 50.2 °F 79% 29.61 in 10.0 mi SW 9.2 mph - N/A   Clear
12:52 AM 57.2 °F 50.0 °F 77% 29.61 in 10.0 mi SW 6.9 mph - N/A   Clear
1:12 AM 56.7 °F 50.0 °F 78% 29.62 in 10.0 mi SW 4.6 mph - N/A   Clear
1:31 AM 56.1 °F 50.0 °F 80% 29.63 in 10.0 mi SSW 4.6 mph - N/A   Clear
1:52 AM 55.8 °F 50.0 °F 81% 29.63 in 10.0 mi Calm Calm - N/A   Clear
2:12 AM 54.5 °F 50.0 °F 85% 29.64 in 10.0 mi South 3.5 mph - N/A   Clear
2:31 AM 54.0 °F 50.0 °F 86% 29.66 in 10.0 mi SSW 9.2 mph - N/A   Clear
2:52 AM 54.9 °F 49.5 °F 82% 29.66 in 10.0 mi South 3.5 mph - N/A   Clear
3:12 AM 53.2 °F 49.3 °F 86% 29.65 in 10.0 mi SE 4.6 mph - N/A   Clear
3:31 AM 52.9 °F 49.3 °F 88% 29.64 in 10.0 mi SE 6.9 mph - N/A   Clear
3:52 AM 52.7 °F 49.5 °F 89% 29.65 in 10.0 mi SSE 5.8 mph - N/A   Clear
4:12 AM 52.0 °F 49.1 °F 90% 29.65 in 10.0 mi SE 5.8 mph - N/A   Clear
4:31 AM 51.6 °F 49.1 °F 91% 29.66 in 10.0 mi SE 4.6 mph - N/A   Clear
4:52 AM 50.4 °F 49.1 °F 95% 29.66 in 10.0 mi ESE 4.6 mph - N/A   Clear
5:12 AM 50.0 °F 48.9 °F 96% 29.66 in 10.0 mi SE 6.9 mph - N/A   Clear
5:31 AM 49.6 °F 49.1 °F 98% 29.66 in 10.0 mi SE 5.8 mph - N/A   Clear
5:52 AM 49.3 °F 48.7 °F 98% 29.66 in 10.0 mi SE 6.9 mph - N/A   Clear
6:12 AM 49.5 °F 48.7 °F 97% 29.67 in 10.0 mi SE 10.4 mph - N/A   Clear
6:31 AM 49.6 °F 48.9 °F 97% 29.67 in 10.0 mi SE 8.1 mph - N/A   Clear
6:52 AM 49.8 °F 48.9 °F 97% 29.66 in 10.0 mi SE 11.5 mph - N/A   Clear
7:12 AM 50.2 °F 49.3 °F 97% 29.66 in 10.0 mi SE 9.2 mph - N/A   Clear
7:31 AM 50.9 °F 49.5 °F 95% 29.66 in 10.0 mi SE 8.1 mph - N/A   Clear
7:52 AM 51.1 °F 49.5 °F 94% 29.66 in 10.0 mi SE 11.5 mph - N/A   Clear
8:11 AM 52.0 °F 50.0 °F 93% 29.67 in 10.0 mi SE 10.4 mph - N/A   Clear
8:32 AM 53.6 °F 50.4 °F 89% 29.68 in 10.0 mi SE 8.1 mph - N/A   Clear
8:52 AM 54.9 °F 50.5 °F 85% 29.67 in 10.0 mi ESE 6.9 mph - N/A   Clear
9:11 AM 55.8 °F 51.1 °F 84% 29.67 in 10.0 mi SE 6.9 mph - N/A   Clear
9:32 AM 58.3 °F 51.6 °F 78% 29.67 in 10.0 mi SE 8.1 mph - N/A   Clear
9:52 AM 60.6 °F 50.9 °F 70% 29.66 in 10.0 mi SSE 9.2 mph 16.1 mph N/A   Clear
10:12 AM 62.8 °F 50.5 °F 64% 29.66 in 10.0 mi SSE 9.2 mph 17.3 mph N/A   Clear
10:32 AM 64.4 °F 50.4 °F 60% 29.66 in 10.0 mi SSE 11.5 mph - N/A   Clear
10:52 AM 65.8 °F 51.1 °F 59% 29.65 in 10.0 mi SSE 10.4 mph 18.4 mph N/A   Clear
11:12 AM 67.3 °F 50.7 °F 55% 29.64 in 10.0 mi SSE 10.4 mph 18.4 mph N/A   Clear
11:32 AM 69.4 °F 49.6 °F 49% 29.64 in 10.0 mi South 10.4 mph 20.7 mph N/A   Clear
11:52 AM 70.3 °F 49.1 °F 47% 29.63 in 10.0 mi SSE 15.0 mph 24.2 mph N/A   Clear
12:11 PM 71.4 °F 48.4 °F 44% 29.63 in 10.0 mi SSE 19.6 mph 32.2 mph N/A   Clear
12:32 PM 72.5 °F 46.9 °F 40% 29.63 in 10.0 mi SSE 16.1 mph 33.4 mph N/A   Clear
12:52 PM 73.2 °F 47.3 °F 40% 29.62 in 10.0 mi South 18.4 mph 27.6 mph N/A   Clear
1:11 PM 73.4 °F 46.8 °F 39% 29.61 in 10.0 mi South 19.6 mph 28.8 mph N/A   Clear
1:32 PM 74.7 °F 46.6 °F 37% 29.61 in 10.0 mi South 19.6 mph 27.6 mph N/A   Clear
1:52 PM 74.5 °F 47.3 °F 38% 29.61 in 10.0 mi South 16.1 mph 26.5 mph N/A   Clear
2:11 PM 75.4 °F 48.4 °F 38% 29.61 in 10.0 mi South 13.8 mph 25.3 mph N/A   Clear
2:32 PM 76.1 °F 46.4 °F 35% 29.61 in 10.0 mi SSW 17.3 mph 28.8 mph N/A   Clear
2:52 PM 76.5 °F 47.7 °F 36% 29.61 in 10.0 mi SSW 13.8 mph 23.0 mph N/A   Clear
3:11 PM 77.0 °F 46.9 °F 34% 29.61 in 10.0 mi SSW 16.1 mph 28.8 mph N/A   Clear
3:32 PM 77.0 °F 47.5 °F 35% 29.62 in 10.0 mi South 13.8 mph 20.7 mph N/A   Clear
3:52 PM 77.0 °F 48.2 °F 36% 29.62 in 10.0 mi SSW 10.4 mph 17.3 mph N/A   Clear
4:11 PM 77.5 °F 48.6 °F 36% 29.62 in 10.0 mi South 5.8 mph - N/A   Clear
4:32 PM 77.9 °F 47.5 °F 34% 29.62 in 10.0 mi West 11.5 mph 21.9 mph N/A   Clear
4:51 PM 74.8 °F 49.5 °F 41% 29.63 in 10.0 mi WNW 11.5 mph 19.6 mph N/A   Clear
5:12 PM 74.3 °F 50.2 °F 43% 29.63 in 10.0 mi WNW 11.5 mph 16.1 mph N/A   Clear
5:32 PM 73.4 °F 49.6 °F 43% 29.63 in 10.0 mi WNW 10.4 mph 17.3 mph N/A   Clear
5:51 PM 72.7 °F 49.5 °F 44% 29.64 in 10.0 mi WNW 11.5 mph - N/A   Clear
6:12 PM 71.4 °F 48.9 °F 45% 29.65 in 10.0 mi WNW 10.4 mph - N/A   Clear
6:31 PM 70.2 °F 49.1 °F 47% 29.66 in 10.0 mi WNW 11.5 mph 17.3 mph N/A   Clear
6:52 PM 67.8 °F 50.9 °F 55% 29.68 in 10.0 mi NW 9.2 mph 17.3 mph N/A   Clear
7:12 PM 66.2 °F 51.4 °F 59% 29.69 in 10.0 mi NW 8.1 mph - N/A   Clear
7:31 PM 64.9 °F 51.6 °F 62% 29.70 in 10.0 mi NW 9.2 mph - N/A   Clear
7:52 PM 63.9 °F 51.6 °F 64% 29.71 in 10.0 mi NW 8.1 mph - N/A   Clear
8:12 PM 62.8 °F 51.4 °F 66% 29.72 in 10.0 mi NW 8.1 mph - N/A   Clear
8:31 PM 61.9 °F 50.9 °F 67% 29.73 in 10.0 mi NW 4.6 mph - N/A   Clear
8:52 PM 61.0 °F 50.4 °F 68% 29.73 in 10.0 mi NW 6.9 mph - N/A   Clear
9:12 PM 60.3 °F 50.0 °F 69% 29.74 in 10.0 mi NW 6.9 mph - N/A   Clear
9:31 PM 59.5 °F 47.8 °F 65% 29.75 in 10.0 mi NNW 6.9 mph - N/A   Clear
9:52 PM 58.6 °F 46.8 °F 65% 29.76 in 10.0 mi NW 5.8 mph - N/A   Clear
10:12 PM 58.1 °F 46.0 °F 64% 29.77 in 10.0 mi NW 6.9 mph - N/A   Scattered Clouds
10:31 PM 58.1 °F 44.4 °F 60% 29.78 in 10.0 mi NW 8.1 mph - N/A   Overcast
10:52 PM 57.6 °F 43.9 °F 60% 29.80 in 10.0 mi NW 9.2 mph - N/A   Overcast
11:12 PM 57.2 °F 41.5 °F 56% 29.80 in 10.0 mi NW 10.4 mph 16.1 mph N/A   Overcast
11:31 PM 56.3 °F 40.5 °F 55% 29.81 in 10.0 mi NW 10.4 mph - N/A   Overcast
11:52 PM 55.6 °F 39.7 °F 55% 29.82 in 10.0 mi NW 8.1 mph - N/A   Overcast